Weather History for Crockett, TX

Change the Weather History Date:

Friday, January 10, 2014

  Actual Average (KLFK) Record (KLFK)
Temperature  
Mean Temperature 66 °F 49 °F  
Max Temperature 71 °F 59 °F 79 °F (1963)
Min Temperature 60 °F 38 °F 11 °F (1962)
Degree Days  
Heating Degree Days 0 17  
Month to date heating degree days 170  
Since 1 July heating degree days 948  
Cooling Degree Days 0 0  
Month to date cooling degree days 0  
Year to date cooling degree days 0  
Growing Degree Days 16 (Base 50)    
Moisture  
Dew Point 62 °F    
Average Humidity 95    
Maximum Humidity 100    
Minimum Humidity 73    
Precipitation  
Precipitation 0.17 in 0.12 in 1.27 in (1991)
Month to date precipitation 1.30  
Year to date precipitation 1.30  
Snow  
Snow 0.00 in - - ()
Month to date snowfall  
Since 1 July snowfall  
Snow Depth -    
Sea Level Pressure  
Sea Level Pressure 29.92 in    
Wind  
Wind Speed 7 mph (South)    
Max Wind Speed 15 mph    
Max Gust Speed 23 mph    
Visibility 8 miles    
Events Rain    
T = Trace of Precipitation, MM = Missing Value Source: NWS Daily Summary

Daily Weather History Graph

Daily Weather History Graph

Search for Another Location

Airport:

Trip Planner

Search our weather history database for the weather conditions in past years. The results will help you decide how hot, cold, wet, or windy it might be!

Date:

Astronomy

Jan. 10, 2014 Rise Set
Actual Time 7:21 AM CST 5:37 PM CST
Civil Twilight 6:55 AM CST 6:03 PM CST
Nautical Twilight 6:25 AM CST 6:33 PM CST
Astronomical Twilight 5:55 AM CST 7:02 PM CST
Moon 1:36 PM CST (1/10) 2:35 AM CST (1/10)
Length of Visible Light 11h 08m
Length of Day
10h 15m
Waxing Gibbous, 75% of the Moon is Illuminated
Jan 10
Waxing Gibbous
Jan 15
Full
Jan 23
Last Quarter
Jan 30
New
Feb 6
First Quarter

Hourly Weather History & Observations

Time (CST) Temp. Dew Point Humidity Pressure Visibility Wind Dir Wind Speed Gust Speed Precip Events Conditions
12:15 AM 60.8 °F 60.8 °F 100% 30.08 in 10.0 mi SSE 5.8 mph - N/A   Mostly Cloudy
12:35 AM 60.8 °F 60.8 °F 100% 30.08 in 9.0 mi SSE 8.1 mph - N/A   Mostly Cloudy
12:55 AM 60.8 °F 60.8 °F 100% 30.07 in 9.0 mi SSE 6.9 mph - N/A   Overcast
1:15 AM 60.8 °F 60.8 °F 100% 30.07 in 9.0 mi SSE 5.8 mph - N/A   Overcast
1:35 AM 60.8 °F 60.8 °F 100% 30.06 in 9.0 mi SSE 6.9 mph - N/A   Overcast
1:55 AM 60.8 °F 60.8 °F 100% 30.06 in 8.0 mi SSE 5.8 mph - N/A   Overcast
2:15 AM 60.8 °F 60.8 °F 100% 30.05 in 9.0 mi SSE 8.1 mph - N/A   Overcast
2:35 AM 60.8 °F 59.0 °F 94% 30.04 in 9.0 mi SSE 9.2 mph - N/A   Overcast
2:55 AM 60.8 °F 59.0 °F 94% 30.04 in 10.0 mi SSE 8.1 mph - N/A   Overcast
3:15 AM 60.8 °F 59.0 °F 94% 30.03 in 9.0 mi SSE 8.1 mph - N/A   Overcast
3:35 AM 60.8 °F 59.0 °F 94% 30.03 in 9.0 mi SSE 6.9 mph - N/A   Overcast
3:55 AM 60.8 °F 59.0 °F 94% 30.03 in 9.0 mi South 10.4 mph - N/A   Overcast
4:15 AM 60.8 °F 59.0 °F 94% 30.01 in 10.0 mi SSE 5.8 mph - N/A   Overcast
4:35 AM 60.8 °F 59.0 °F 94% 30.01 in 9.0 mi SSE 5.8 mph - N/A   Overcast
4:55 AM 60.8 °F 59.0 °F 94% 30.00 in 10.0 mi SSE 5.8 mph - N/A   Overcast
5:15 AM 60.8 °F 59.0 °F 94% 30.00 in 10.0 mi SSE 9.2 mph - N/A   Overcast
5:35 AM 60.8 °F 59.0 °F 94% 29.99 in 10.0 mi SSE 5.8 mph - N/A   Overcast
5:55 AM 60.8 °F 59.0 °F 94% 29.99 in 10.0 mi SSE 6.9 mph - N/A   Overcast
6:15 AM 60.8 °F 59.0 °F 94% 29.99 in 10.0 mi SSE 8.1 mph - N/A   Overcast
6:35 AM 60.8 °F 59.0 °F 94% 29.98 in 10.0 mi SSE 9.2 mph - N/A   Overcast
6:55 AM 60.8 °F 59.0 °F 94% 29.98 in 10.0 mi SSE 10.4 mph 16.1 mph N/A   Overcast
7:15 AM 60.8 °F 60.8 °F 100% 29.99 in 10.0 mi SSE 9.2 mph - N/A   Overcast
7:35 AM 60.8 °F 60.8 °F 100% 29.99 in 9.0 mi SSE 11.5 mph - N/A   Overcast
7:55 AM 60.8 °F 60.8 °F 100% 30.00 in 9.0 mi SSE 10.4 mph 18.4 mph N/A   Mostly Cloudy
8:15 AM 62.6 °F 60.8 °F 94% 30.00 in 9.0 mi SSE 8.1 mph - N/A   Mostly Cloudy
8:35 AM 62.6 °F 60.8 °F 94% 29.99 in 10.0 mi SSE 12.7 mph 18.4 mph N/A   Mostly Cloudy
8:55 AM 62.6 °F 60.8 °F 94% 29.98 in 10.0 mi SSE 9.2 mph 21.9 mph N/A   Scattered Clouds
9:15 AM 62.6 °F 60.8 °F 94% 29.99 in 10.0 mi SSE 10.4 mph 17.3 mph N/A   Mostly Cloudy
9:35 AM 64.4 °F 60.8 °F 88% 29.98 in 10.0 mi SSE 11.5 mph 17.3 mph N/A   Mostly Cloudy
9:55 AM 64.4 °F 60.8 °F 88% 29.98 in 10.0 mi South 13.8 mph 19.6 mph N/A   Mostly Cloudy
10:15 AM 66.2 °F 62.6 °F 88% 29.98 in 10.0 mi South 11.5 mph 19.6 mph 0.01 in   Scattered Clouds
10:35 AM 66.2 °F 60.8 °F 83% 29.97 in 10.0 mi South 15.0 mph 23.0 mph 0.01 in   Scattered Clouds
10:55 AM 66.2 °F 60.8 °F 83% 29.97 in 10.0 mi South 12.7 mph 23.0 mph 0.01 in   Mostly Cloudy
11:15 AM 66.2 °F 62.6 °F 88% 29.95 in 9.0 mi South 10.4 mph 17.3 mph N/A   Mostly Cloudy
11:35 AM 68.0 °F 62.6 °F 83% 29.93 in 10.0 mi South 15.0 mph 18.4 mph N/A   Scattered Clouds
11:55 AM 68.0 °F 62.6 °F 83% 29.92 in 10.0 mi SSE 9.2 mph 18.4 mph N/A   Scattered Clouds
12:15 PM 68.0 °F 62.6 °F 83% 29.90 in 10.0 mi South 11.5 mph 16.1 mph N/A   Mostly Cloudy
12:35 PM 68.0 °F 62.6 °F 83% 29.89 in 9.0 mi South 11.5 mph - N/A   Mostly Cloudy
12:55 PM 69.8 °F 62.6 °F 78% 29.87 in 9.0 mi South 9.2 mph - N/A   Mostly Cloudy
1:15 PM 69.8 °F 62.6 °F 78% 29.85 in 9.0 mi South 9.2 mph - N/A   Scattered Clouds
1:35 PM 71.6 °F 62.6 °F 73% 29.83 in 10.0 mi South 10.4 mph 16.1 mph N/A   Mostly Cloudy
1:55 PM 69.8 °F 62.6 °F 78% 29.82 in 10.0 mi South 9.2 mph 17.3 mph N/A   Mostly Cloudy
2:15 PM 68.0 °F 62.6 °F 83% 29.82 in 5.0 mi SSE 8.1 mph - N/A   Haze
2:35 PM 66.2 °F 64.4 °F 94% 29.82 in 1.5 mi Calm Calm - N/A   Overcast
2:55 PM 64.4 °F 64.4 °F 100% 29.81 in 1.2 mi South 3.5 mph - 0.01 in   Overcast
3:15 PM 64.4 °F 64.4 °F 100% 29.81 in 1.8 mi Calm Calm - 0.01 in   Overcast
3:35 PM 64.4 °F 64.4 °F 100% 29.81 in 0.8 mi Calm Calm - 0.05 in Rain Light Rain
3:55 PM 64.4 °F 64.4 °F 100% 29.80 in 1.0 mi South 3.5 mph - 0.06 in   Light Drizzle
4:15 PM 64.4 °F 64.4 °F 100% 29.80 in 0.8 mi South 6.9 mph - 0.01 in Rain Light Rain
4:35 PM 64.4 °F 64.4 °F 100% 29.81 in 0.8 mi Calm Calm - 0.05 in Rain Light Rain
4:55 PM 64.4 °F 64.4 °F 100% 29.80 in 1.0 mi Calm Calm - 0.09 in   Light Drizzle
5:15 PM 64.4 °F 64.4 °F 100% 29.78 in 8.0 mi South 3.5 mph - N/A   Overcast
5:35 PM 64.4 °F 64.4 °F 100% 29.79 in 9.0 mi Calm Calm - N/A   Mostly Cloudy
5:55 PM 64.4 °F 64.4 °F 100% 29.79 in 10.0 mi South 6.9 mph - N/A   Overcast
6:15 PM 64.4 °F 64.4 °F 100% 29.79 in 10.0 mi South 9.2 mph - N/A   Overcast
6:35 PM 66.2 °F 66.2 °F 100% 29.80 in 10.0 mi SSW 6.9 mph - N/A   Overcast
6:55 PM 66.2 °F 66.2 °F 100% 29.80 in 9.0 mi SSW 9.2 mph - N/A   Overcast
7:15 PM 66.2 °F 66.2 °F 100% 29.80 in 10.0 mi South 10.4 mph - N/A   Mostly Cloudy
7:35 PM 66.2 °F 66.2 °F 100% 29.80 in 10.0 mi South 10.4 mph - N/A   Overcast
7:55 PM 66.2 °F 66.2 °F 100% 29.80 in 9.0 mi South 10.4 mph - N/A   Mostly Cloudy
8:15 PM 66.2 °F 66.2 °F 100% 29.81 in 8.0 mi SSW 6.9 mph - N/A   Overcast
8:35 PM 66.2 °F 66.2 °F 100% 29.82 in 9.0 mi SW 6.9 mph - N/A   Overcast
8:55 PM 66.2 °F 66.2 °F 100% 29.83 in 9.0 mi SW 5.8 mph - N/A   Overcast
9:15 PM 66.2 °F 66.2 °F 100% 29.84 in 8.0 mi SW 6.9 mph - N/A   Overcast
9:35 PM 66.2 °F 64.4 °F 94% 29.84 in 8.0 mi SW 5.8 mph - N/A   Mostly Cloudy
9:55 PM 66.2 °F 64.4 °F 94% 29.84 in 7.0 mi SW 9.2 mph - N/A   Scattered Clouds
10:15 PM 64.4 °F 64.4 °F 100% 29.84 in 7.0 mi SSW 6.9 mph - N/A   Scattered Clouds
10:35 PM 64.4 °F 64.4 °F 100% 29.85 in 7.0 mi SSW 5.8 mph - N/A   Partly Cloudy
10:55 PM 64.4 °F 64.4 °F 100% 29.85 in 6.0 mi SSW 4.6 mph - N/A   Clear
11:15 PM 64.4 °F 62.6 °F 94% 29.85 in 5.0 mi Calm Calm - N/A   Clear
11:35 PM 62.6 °F 62.6 °F 100% 29.86 in 5.0 mi Calm Calm - N/A   Clear
11:55 PM 62.6 °F 62.6 °F 100% 29.86 in 3.0 mi Calm Calm - N/A   Clear